Weather History for LHDC - April, 2014

Change the Weather History Date:

Thursday, April 3, 2014

  Actual Average Record
Temperature  
Mean Temperature 54 °F -  
Max Temperature 68 °F 63 °F - ()
Min Temperature 39 °F 43 °F - ()
Degree Days  
Heating Degree Days 12    
Growing Degree Days 4 (Base 50)    
Moisture  
Dew Point 42 °F    
Average Humidity 55    
Maximum Humidity 87    
Minimum Humidity 25    
Precipitation  
Precipitation 0.00 in 0.06 in - ()
Sea Level Pressure  
Sea Level Pressure 29.84 in    
Wind  
Wind Speed 7 mph ()    
Max Wind Speed 18 mph    
Max Gust Speed -    
Visibility 13.4 miles    
Events      
T = Trace of Precipitation, MM = Missing Value Source: Averaged Metar Reports

Daily Weather History Graph

Daily Weather History Graph

Search for Another Location

Airport or City:

Trip Planner

Search our weather history database for the weather conditions in past years. The results will help you decide how hot, cold, wet, or windy it might be!

Date:

Astronomy

Apr. 03, 2014 Rise Set
Actual Time 6:08 AM CEST 7:05 PM CEST
Civil Twilight 5:37 AM CEST 7:37 PM CEST
Nautical Twilight 5:00 AM CEST 8:14 PM CEST
Astronomical Twilight 4:20 AM CEST 8:54 PM CEST
Moon 8:10 AM CEST 11:22 PM CEST
Length of Visible Light 13h 59m
Length of Day
12h 56m
Waxing Crescent, 15% of the Moon is Illuminated
Apr 3
Waxing Crescent
Apr 7
First Quarter
Apr 15
Full
Apr 22
Last Quarter
Apr 29
New

Hourly Weather History & Observations

Time (CEST) Temp. Windchill Dew Point Humidity Pressure Visibility Wind Dir Wind Speed Gust Speed Precip Events Conditions
12:00 AM 47 °F - 35 °F 52% 29.91 in - East 2.2 mph - -  
1:00 AM 46 °F - 35 °F 53% 29.91 in - East 2.2 mph - -  
2:00 AM 46 °F - 34 °F 52% 29.90 in - ENE 4.5 mph - -  
3:00 AM 46 °F - 35 °F 53% 29.91 in - ENE 4.5 mph - -  
4:00 AM 43 °F - 35 °F 63% 29.90 in - SE 2.2 mph - -  
4:45 AM 41.0 °F 39.0 °F 33.8 °F 76% 29.89 in - SE 3.5 mph - N/A   Clear
5:00 AM 41 °F - 35 °F 70% 29.90 in 12 mi SE 4.5 mph - -   Partly Cloudy
5:15 AM 41.0 °F 39.0 °F 33.8 °F 76% 29.89 in - SE 3.5 mph - N/A   Clear
6:00 AM 40 °F - 35 °F 77% 29.90 in 12 mi SSE 6.7 mph - -   Partly Cloudy
6:15 AM 41.0 °F 38.0 °F 35.6 °F 81% 29.89 in - SSE 4.6 mph - N/A   Clear
6:45 AM 39.2 °F 35.9 °F 35.6 °F 87% 29.89 in - SE 4.6 mph - N/A   Clear
7:00 AM 40 °F - 36 °F 80% 29.91 in 9 mi SE 4.5 mph - -   Partly Cloudy
7:00 AM - - - N/A% - - SSE 6.9 mph - N/A   Clear
7:15 AM 42.8 °F 41.1 °F 37.4 °F 81% 29.89 in - SE 3.5 mph - N/A   Clear
7:45 AM 44.6 °F - 39.2 °F 81% 29.89 in - SSE 1.2 mph - N/A   Clear
8:00 AM 45 °F - 40 °F 76% 29.91 in 9 mi SSE 2.2 mph - -   Partly Cloudy
8:15 AM 48.2 °F - 41.0 °F 76% 29.89 in - South 3.5 mph - N/A   Clear
8:45 AM 50.0 °F - 42.8 °F 76% 29.89 in - SSW 4.6 mph - N/A   Clear
9:00 AM 50 °F - 43 °F 70% 29.90 in 8 mi SSW 4.5 mph - -   Partly Cloudy
9:15 AM 51.8 °F - 42.8 °F 71% 29.92 in - SSW 8.1 mph - N/A   Clear
9:45 AM 55.4 °F - 44.6 °F 67% 29.89 in - South 9.2 mph - N/A   Clear
10:00 AM 56 °F - 44 °F 54% 29.90 in 9 mi South 8.9 mph - -   Partly Cloudy
10:00 AM - - - N/A% - - South 12.7 mph - N/A   Clear
10:15 AM 57.2 °F - 44.6 °F 63% 29.89 in - SSW 13.8 mph - N/A   Clear
10:45 AM 59.0 °F - 42.8 °F 55% 29.89 in - SSW 12.7 mph - N/A   Clear
11:00 AM 59 °F - 43 °F 45% 29.89 in 9 mi SSW 13.4 mph - -   Partly Cloudy
11:15 AM 60.8 °F - 42.8 °F 52% 29.89 in - SSW 12.7 mph - N/A   Clear
11:45 AM 62.6 °F - 42.8 °F 48% 29.86 in - SSW 13.8 mph - N/A   Clear
12:00 PM 63 °F - 43 °F 36% 29.86 in 12 mi SSW 13.4 mph - -   Partly Cloudy
12:15 PM 64.4 °F - 42.8 °F 45% 29.86 in - South 12.7 mph - N/A   Clear
12:45 PM 66.2 °F - 42.8 °F 43% 29.86 in - SSW 15.0 mph - N/A   Clear
1:00 PM 66 °F - 42 °F 30% 29.85 in 12 mi SSW 15.7 mph - -   Partly Cloudy
1:00 PM - - - N/A% - - SSW 13.8 mph - N/A   Clear
1:15 PM 66.2 °F - 42.8 °F 43% 29.83 in - SSW 15.0 mph - N/A   Clear
1:45 PM 68.0 °F - 41.0 °F 37% 29.83 in - SSW 16.1 mph - N/A   Clear
2:00 PM 68 °F - 40 °F 25% 29.82 in 19 mi SSW 15.7 mph - -   Partly Cloudy
2:15 PM 66.2 °F - 44.6 °F 46% 29.83 in - South 16.1 mph - N/A   Clear
2:45 PM 66.2 °F - 44.6 °F 46% 29.80 in - SSW 17.3 mph - N/A   Clear
3:00 PM 67 °F - 44 °F 31% 29.80 in 19 mi SSW 17.9 mph - -   Partly Cloudy
3:15 PM 68.0 °F - 46.4 °F 46% 29.80 in - South 15.0 mph - N/A   Clear
3:45 PM 68.0 °F - 44.6 °F 43% 29.80 in - SSW 16.1 mph - N/A   Clear
4:00 PM 69 °F - 45 °F 31% 29.78 in 19 mi SSW 15.7 mph - -   Partly Cloudy
4:00 PM - - - N/A% - - North - - N/A   Unknown
4:15 PM 68.0 °F - 44.6 °F 43% 29.80 in - SSW 18.4 mph - N/A   Clear
4:45 PM 68.0 °F - 44.6 °F 43% 29.77 in - South 18.4 mph - N/A   Clear
5:00 PM 68 °F - 45 °F 32% 29.77 in 19 mi South 17.9 mph - -   Partly Cloudy
5:15 PM 68.0 °F - 46.4 °F 46% 29.77 in - SSW 17.3 mph - N/A   Clear
5:45 PM 66.2 °F - 46.4 °F 49% 29.77 in - SSW 15.0 mph - N/A   Clear
6:00 PM 67 °F - 46 °F 36% 29.76 in 19 mi SSW 13.4 mph - -   Partly Cloudy
6:15 PM 66.2 °F - 44.6 °F 46% 29.77 in - SSW 15.0 mph - N/A   Clear
6:45 PM 62.6 °F - 42.8 °F 48% 29.77 in - SW 10.4 mph - N/A   Clear
7:00 PM 63 °F - 43 °F 37% 29.77 in 16 mi SW 11.2 mph - -   Partly Cloudy
7:15 PM 60.8 °F - 44.6 °F 55% 29.77 in - South 8.1 mph - N/A   Clear
7:45 PM 57.2 °F - 44.6 °F 63% 29.77 in - SSW 6.9 mph - N/A   Clear
8:00 PM 57 °F - 44 °F 51% 29.78 in 12 mi SSW 6.7 mph - -   Partly Cloudy
8:15 PM 55.4 °F - 42.8 °F 63% 29.77 in - South 6.9 mph - N/A   Clear
8:45 PM 55.4 °F - 42.8 °F 63% 29.77 in - South 5.8 mph - N/A   Clear
9:00 PM 55 °F - 43 °F 54% 29.78 in 12 mi South 6.7 mph - -   Partly Cloudy
10:00 PM 55 °F - 43 °F 53% 29.78 in - South 6.7 mph - -  
11:00 PM 54 °F - 45 °F 62% 29.78 in - South 6.7 mph - -